Dewpoint
72 72 73 73 72 72 73 72 72 71 72 70 70 70 69 70 68 67 68 69 68 70 69 74 76 74 74 74 74 73 73 73 75 75 76 76 76 74 73 74 74 74 74 73 73 72 71 71 71 70 70 70 70 70 70 70 71 72 71 71 72 72 72 72 72 72 72 72 71 71 71 72 72 72
74 74 74 74 73 73 72 72 72 72 72 70 71 72 71 71 70 69 68 69 68 69 70 72 74 75 74 72 73 73 74 73 75 76 76 76 76 74 73 73 74 73 73 73 73 73 72 71 71 71 70 70 70 70 70 70 70 70 71 71 71 71 72 72 72 72 72 72 71 71 71 72 72 72
74 74 74 74 73 74 73 74 73 73 72 72 71 72 72 71 71 70 70 68 71 70 71 74 73 74 74 73 72 74 75 74 75 75 76 76 76 74 74 74 73 73 73 72 72 72 73 72 72 72 72 72 71 71 71 70 70 71 70 70 71 71 72 72 71 71 72 72 71 71 71 71 72 72
74 74 74 74 74 74 74 74 73 73 73 74 73 73 73 73 72 72 70 69 70 72 72 73 74 73 73 74 73 74 73 73 74 75 76 76 76 76 75 74 73 73 72 72 72 71 72 72 73 73 73 72 71 71 71 71 71 70 71 70 70 71 70 70 71 71 71 72 71 71 71 71 71 72
73 74 74 74 74 74 73 73 72 72 72 73 74 74 73 72 73 72 71 70 71 72 72 72 72 73 73 74 74 73 73 74 74 75 76 77 75 75 75 76 72 72 72 71 71 71 71 71 72 72 73 73 73 72 71 71 72 72 72 72 71 70 69 70 71 71 71 71 71 71 71 71 71 71
73 74 74 74 73 74 73 72 71 71 72 71 71 73 73 73 73 73 72 71 71 71 72 73 73 73 73 73 74 74 73 73 74 73 75 76 76 76 76 75 75 71 71 70 70 70 70 70 70 71 72 73 73 73 73 72 71 71 72 71 69 68 69 69 70 70 71 71 71 71 71 71 71 71
73 73 74 73 73 74 73 74 71 73 73 74 73 72 72 72 72 73 73 72 71 71 72 72 72 72 73 73 74 74 73 74 73 73 74 74 75 74 74 74 74 70 70 70 70 70 70 70 69 70 70 71 72 73 72 71 69 69 69 68 67 68 69 68 68 69 70 70 70 71 71 71 71 71
72 72 73 73 74 74 73 73 72 72 72 74 73 72 74 73 72 74 74 73 73 71 71 71 71 72 72 73 73 72 73 73 73 73 73 73 73 74 74 74 72 71 70 70 70 70 69 69 69 68 69 69 70 69 68 68 68 67 67 67 67 67 67 66 66 67 67 68 68 68 69 70 70 70
72 73 73 74 74 73 73 72 71 71 71 72 73 73 73 73 74 74 74 73 72 72 71 71 71 71 71 72 72 72 71 71 72 72 72 73 73 73 73 74 73 70 69 68 67 67 68 68 67 66 65 65 65 65 65 64 64 65 64 64 63 63 64 64 64 65 65 64 64 65 65 66 67 67
74 74 74 74 74 73 72 72 71 71 71 73 73 73 73 74 74 73 72 72 72 71 71 70 70 70 70 71 71 72 72 70 70 71 73 73 73 73 72 72 72 72 71 70 68 66 66 64 64 64 64 64 64 63 63 63 62 61 60 59 61 62 61 61 61 61 61 61 62 62 62 64 65 65
74 74 74 74 74 73 72 72 72 72 73 74 74 74 74 74 73 72 72 72 71 71 70 70 70 69 70 70 70 71 71 71 71 71 70 70 71 71 72 70 70 69 67 67 67 66 66 65 64 63 62 63 63 63 62 62 62 61 60 59 59 59 60 60 59 59 59 59 58 58 58 60 62 63
74 75 75 74 73 73 73 72 72 73 74 74 73 73 73 73 73 72 72 72 72 71 71 71 70 71 70 70 70 70 71 71 71 71 70 70 69 69 69 69 69 69 68 66 66 65 65 65 65 64 64 63 63 63 63 63 62 62 60 60 60 60 59 59 58 58 58 58 57 57 57 57 58 60
74 74 74 74 73 73 74 74 73 74 75 74 73 73 73 73 72 72 72 72 72 71 70 70 70 70 69 70 70 70 70 69 69 70 71 70 69 69 68 68 70 68 66 66 65 64 64 63 63 63 63 64 63 62 62 63 63 62 60 60 60 59 58 58 58 57 57 57 57 57 57 56 56 57
74 74 74 74 74 74 74 74 74 74 75 76 75 74 73 73 72 72 72 72 71 71 70 70 70 69 69 70 70 69 70 71 70 70 69 69 69 68 67 67 67 68 66 64 63 63 62 61 61 61 61 61 62 62 61 61 61 61 60 59 59 59 58 58 57 57 57 56 56 56 56 56 56 56
73 73 73 73 74 75 75 75 75 75 75 75 75 75 75 74 74 72 72 72 72 70 69 70 70 69 69 71 71 69 70 71 70 70 70 69 68 67 67 64 65 68 66 63 61 62 61 60 59 60 60 60 60 61 61 61 61 60 59 59 58 58 58 58 57 57 56 56 56 56 55 55 55 55
72 73 72 72 73 75 76 76 76 76 75 75 74 74 74 74 73 73 72 71 70 70 70 70 68 68 68 68 69 69 69 69 70 70 70 68 68 67 65 65 63 65 66 63 61 61 63 62 59 59 60 60 60 60 61 60 60 60 59 58 58 57 57 57 57 56 55 55 55 55 55 55 55 54
72 73 73 72 72 74 75 75 75 75 75 74 73 73 72 71 70 68 69 71 71 71 69 69 68 68 67 68 69 69 69 68 68 69 68 66 66 65 65 64 63 64 66 61 60 60 62 62 60 59 60 60 60 59 60 60 60 60 59 59 58 57 57 56 56 55 55 54 53 53 53 53 53 53
72 72 73 72 72 73 75 76 74 74 73 72 69 67 67 68 69 69 68 68 69 68 68 68 68 67 66 67 67 67 67 67 68 67 64 65 64 65 64 65 66 67 65 61 60 60 61 62 60 59 61 61 60 61 59 59 59 59 59 59 58 57 56 56 56 55 54 54 53 52 51 51 51 51
72 71 72 73 72 73 75 74 73 72 70 68 66 65 65 65 65 65 65 65 66 66 65 65 65 65 65 65 65 66 67 68 68 67 66 65 65 65 66 65 66 65 67 65 61 58 60 61 60 60 61 61 61 62 60 59 59 59 58 58 58 58 57 57 56 56 55 54 54 53 52 51 50 50
71 72 72 72 73 72 74 74 72 71 68 66 64 64 64 64 64 64 65 63 65 66 65 65 65 64 64 63 66 66 67 67 67 68 67 67 66 65 63 62 63 63 65 64 60 59 60 61 60 60 62 61 60 61 61 60 59 58 58 57 57 57 57 57 57 57 57 56 56 55 54 53 52 52
71 71 72 72 73 72 72 71 66 67 69 65 64 63 63 63 63 63 63 63 62 61 61 61 62 61 61 60 60 61 63 65 66 65 64 63 63 62 60 61 61 61 63 64 62 60 60 61 61 60 60 60 60 60 60 60 59 58 58 57 56 56 56 56 56 56 56 56 56 56 55 54 54 55
71 71 72 72 73 73 72 66 64 65 68 65 64 63 62 62 62 63 63 62 62 62 61 62 63 63 63 62 61 60 60 62 66 66 63 62 62 62 61 60 60 61 61 62 63 59 60 61 61 61 62 62 62 61 61 62 61 60 59 58 57 56 56 55 55 55 56 56 56 55 55 55 56 58
70 69 70 72 72 72 71 62 62 64 69 65 64 63 62 62 61 62 62 60 60 61 61 61 61 62 62 62 62 62 62 62 61 62 62 63 63 61 60 60 59 58 58 60 63 60 61 61 61 61 59 58 61 60 60 59 60 60 60 60 59 58 57 56 54 53 54 54 54 54 54 54 56 59
69 69 70 70 67 64 62 60 60 62 63 64 64 63 61 61 60 61 61 61 61 60 60 60 60 60 60 58 58 58 58 58 60 58 59 61 62 61 61 60 59 58 57 58 63 61 61 62 61 62 58 56 56 57 55 54 56 57 59 59 59 59 58 57 56 54 53 53 53 53 53 53 54 58
68 68 69 70 66 61 59 59 58 58 59 63 63 63 61 61 62 62 61 60 61 60 60 60 60 59 59 59 58 58 58 57 58 58 58 58 59 59 58 56 56 56 56 58 61 62 60 60 60 61 60 58 55 51 53 53 53 55 57 58 58 58 59 58 57 57 54 53 52 51 51 53 53 55
68 69 70 70 67 58 57 56 55 55 58 60 65 63 57 58 60 61 62 60 59 59 59 59 59 58 56 55 55 55 55 56 57 57 58 59 58 57 58 58 57 56 56 58 61 61 60 60 60 59 58 54 52 51 50 51 53 54 56 57 57 58 58 58 57 57 57 56 55 53 52 51 52 52
68 63 61 61 60 55 55 54 54 55 57 62 60 55 56 57 59 61 59 59 58 58 58 58 58 57 55 53 52 52 52 53 55 53 54 54 56 57 58 58 57 56 56 58 60 61 61 59 61 58 56 53 52 51 51 50 51 54 54 55 56 57 57 57 57 56 56 56 55 53 52 52 51 51
58 57 56 55 51 49 49 51 52 55 59 59 53 54 56 58 61 61 61 59 58 59 57 57 56 55 54 52 51 52 52 52 53 53 53 53 53 53 53 54 57 57 56 55 57 59 60 58 58 59 57 54 51 49 49 51 52 53 52 53 54 55 56 56 56 56 56 56 55 55 53 52 54 53
55 52 50 50 51 52 52 53 55 56 54 53 54 55 57 62 60 60 59 59 58 57 57 57 56 55 55 54 53 54 55 56 54 53 53 54 54 52 52 53 54 54 55 55 54 56 58 57 56 56 56 54 52 52 51 49 50 52 52 52 52 53 54 55 56 54 54 54 53 53 53 54 53 54
53 53 53 53 54 54 57 60 60 60 60 57 57 58 61 59 59 59 58 58 57 56 57 57 56 55 55 55 56 57 55 53 52 52 52 52 52 52 52 51 51 51 51 54 51 52 54 54 55 54 52 52 50 49 48 47 47 49 51 49 50 52 52 53 53 54 53 52 51 50 51 52 52 52
58 58 58 56 53 54 54 58 59 60 59 59 58 59 59 59 59 59 58 57 57 56 55 55 54 55 55 56 56 55 55 55 55 54 53 50 51 52 52 51 50 51 51 52 53 53 51 52 53 52 51 50 49 50 50 49 48 48 48 49 48 48 51 53 53 51 51 52 52 51 51 49 48 52
59 59 58 56 59 58 57 57 57 57 57 58 58 57 58 59 60 60 59 58 57 56 55 55 55 56 54 53 54 54 53 53 53 54 53 52 51 52 51 49 49 50 50 51 50 53 55 53 52 53 53 51 49 49 50 49 47 47 48 49 49 49 51 51 51 51 52 51 47 47 50 48 45 47
58 58 58 58 58 57 56 56 55 56 55 56 56 56 56 57 57 56 56 54 55 55 54 53 52 52 52 52 52 52 52 52 51 51 50 51 50 50 50 50 50 50 49 49 49 50 52 53 54 53 52 52 52 51 47 45 46 47 46 47 48 47 47 48 50 50 52 50 47 46 47 46 46 47
56 56 56 56 56 55 56 56 56 55 55 55 55 55 56 57 56 56 56 55 55 52 51 51 51 51 51 51 51 51 50 50 50 51 50 51 51 49 49 48 50 50 50 49 49 49 50 51 51 51 51 51 50 52 50 46 45 46 46 47 47 46 48 49 49 50 53 49 48 43 44 43 45 47
56 55 55 55 56 56 56 55 55 56 55 55 55 55 56 56 56 55 55 52 51 51 50 51 51 51 50 50 50 50 50 49 49 50 51 51 50 49 49 48 49 50 49 49 48 51 51 51 49 47 49 49 48 48 50 51 47 46 47 46 47 46 46 48 47 49 51 51 50 47 44 43 43 45
53 53 54 54 55 55 55 55 56 55 55 55 55 54 54 54 54 52 51 51 50 49 49 49 50 50 50 50 50 50 50 50 50 50 50 50 49 49 49 49 49 49 49 49 49 50 51 50 49 45 43 43 42 42 43 48 49 48 45 44 47 48 46 47 49 49 48 47 50 47 40 40 42 44
51 51 52 51 51 52 52 53 53 53 53 53 52 52 51 51 50 50 51 51 50 50 50 50 49 50 51 51 51 50 50 49 49 49 48 48 49 48 48 48 49 49 48 48 49 50 51 50 50 48 45 42 41 40 41 46 47 48 50 46 47 48 48 48 50 47 46 48 48 46 44 42 41 42
51 50 51 51 51 51 51 51 51 51 50 50 50 50 49 50 50 51 52 50 50 50 49 49 49 49 48 49 48 47 48 48 48 47 47 47 47 47 46 46 46 46 46 47 49 49 50 50 49 49 47 42 40 40 39 42 43 42 47 50 47 47 49 48 45 44 46 47 46 47 48 43 41 44
51 51 50 51 51 51 50 51 50 50 50 50 50 50 50 49 49 50 50 50 50 49 49 49 49 49 49 48 48 48 47 47 46 47 46 46 46 46 46 45 45 45 45 45 46 47 48 49 49 49 48 45 42 42 42 41 40 42 44 47 48 47 46 46 43 44 44 44 45 48 49 49 47 48
51 51 51 50 50 50 50 50 50 50 50 50 50 50 50 50 50 49 49 50 50 50 49 49 49 48 48 48 47 47 47 47 47 46 47 47 47 46 46 46 45 45 46 44 44 44 46 46 49 50 47 48 49 47 44 42 42 45 44 45 47 48 47 47 45 43 42 44 47 45 43 44 39 44
51 50 50 51 50 51 50 50 50 51 50 51 52 51 51 50 49 49 50 50 50 49 47 48 48 48 47 47 48 46 46 47 47 47 48 48 47 47 46 45 45 45 44 43 44 43 44 44 49 49 50 51 49 48 42 39 39 39 39 40 45 47 48 48 47 46 45 47 45 40 39 39 40 40
50 50 50 50 49 50 49 49 49 49 50 50 50 50 52 53 53 52 51 51 50 50 48 47 48 48 47 47 46 46 45 45 45 45 45 44 44 45 45 44 43 43 43 42 42 42 45 48 48 49 49 48 46 43 40 39 37 38 41 41 43 45 46 48 48 48 49 46 41 38 38 39 40 37
51 50 50 51 50 50 49 49 49 48 48 48 48 49 48 48 48 48 47 48 49 48 47 47 46 46 46 45 46 46 45 44 45 44 44 44 44 43 43 43 43 43 43 43 43 45 46 47 48 47 47 45 45 44 39 40 40 40 41 40 41 44 46 47 47 47 47 49 48 46 44 40 38 35
51 51 50 50 49 50 49 49 48 49 49 48 48 49 48 48 48 48 48 47 47 46 46 46 46 46 45 45 45 45 45 44 44 45 44 44 44 44 43 44 43 44 43 43 43 43 44 46 47 47 45 43 44 42 40 39 37 39 39 41 44 45 42 43 44 46 47 47 48 48 48 48 48 48
51 51 50 50 49 49 49 50 49 49 49 49 49 49 49 48 48 47 47 48 47 47 47 46 45 45 45 45 45 44 45 46 45 45 45 44 44 44 44 44 43 43 42 43 42 43 44 44 44 46 45 45 45 43 41 41 41 40 41 42 41 43 42 42 41 41 41 40 44 47 48 49 48 47